�N����,����,�~����,�C��,���x,�C��,����,���ϕ���,�ő�u�ԕ���,�ő厞����,���˗�,�I�_���x,�n�����x,�ő啗���N��,DTYPE
"23/08/10","00:10",0.0,27.7,84.5,1000.5,87.4,0.7,2.5,58.2,0.00,24.9,26.2,"00:01:52",1
"23/08/10","00:20",0.2,27.5,85.3,1000.8,41.5,0.6,2.0,103.4,0.00,24.8,26.1,"00:18:40",1
"23/08/10","00:30",0.0,27.3,86.1,1000.8,75.8,0.7,1.7,69.8,0.00,24.8,26.1,"00:20:56",1
"23/08/10","00:40",0.0,27.3,86.5,1000.5,65.8,0.7,2.8,90.7,0.00,24.9,26.2,"00:34:48",1
"23/08/10","00:50",0.0,27.3,86.8,1000.8,76.1,0.8,2.1,105.3,0.00,24.9,26.2,"00:40:24",1
"23/08/10","01:00",0.0,27.4,86.7,1000.8,103.2,1.1,2.6,133.9,0.00,25.0,25.9,"00:53:52",1
"23/08/10","01:10",0.0,27.5,86.4,1000.8,109.7,0.8,1.9,107.0,0.00,25.1,25.9,"01:01:12",1
"23/08/10","01:20",0.0,27.4,86.2,1000.5,93.4,0.8,2.2,99.2,0.00,24.9,25.9,"01:17:44",1
"23/08/10","01:30",0.2,27.4,86.4,1000.8,70.6,1.0,3.4,25.0,0.00,25.0,25.9,"01:23:36",1
"23/08/10","01:40",0.0,27.1,86.8,1000.8,65.5,0.8,1.9,62.3,0.00,24.7,25.9,"01:34:40",1
"23/08/10","01:50",0.0,27.0,87.1,1000.3,64.1,0.6,1.6,59.5,0.00,24.7,26.1,"01:49:04",1
"23/08/10","02:00",0.0,26.9,87.2,1000.3,69.0,0.6,1.4,51.1,0.00,24.6,26.0,"01:51:36",1
"23/08/10","02:10",0.0,27.0,86.8,1000.3,80.5,1.1,3.2,112.2,0.00,24.7,25.9,"02:04:16",1
"23/08/10","02:20",0.0,27.2,86.0,1000.0,86.2,1.1,2.7,84.1,0.00,24.7,26.0,"02:14:24",1
"23/08/10","02:30",0.0,27.4,85.2,1000.3,91.2,1.1,2.7,112.1,0.00,24.7,25.9,"02:20:56",1
"23/08/10","02:40",0.0,27.4,84.5,1000.0,113.2,0.8,2.0,128.3,0.00,24.6,25.8,"02:35:12",1
"23/08/10","02:50",0.0,27.6,83.8,1000.0,94.6,1.0,2.6,103.6,0.00,24.7,25.8,"02:45:28",1
"23/08/10","03:00",0.0,27.5,83.8,1000.0,118.7,0.8,2.1,110.7,0.00,24.6,25.9,"02:53:28",1
"23/08/10","03:10",0.0,27.3,84.3,1000.0,128.8,1.1,3.6,155.0,0.00,24.5,25.9,"03:08:24",1
"23/08/10","03:20",0.0,27.4,84.3,1000.0,119.2,1.0,2.8,111.8,0.00,24.6,25.9,"03:16:00",1
"23/08/10","03:30",0.0,27.6,83.7,1000.3,140.7,1.0,2.5,122.7,0.00,24.6,25.9,"03:21:36",1
"23/08/10","03:40",0.0,27.7,83.1,1000.5,137.8,1.0,2.4,175.6,0.00,24.6,25.6,"03:33:20",1
"23/08/10","03:50",0.0,27.7,82.5,1000.3,121.0,0.8,2.5,124.6,0.00,24.5,25.8,"03:45:28",1
"23/08/10","04:00",0.0,27.9,81.8,1000.3,120.5,1.1,2.7,128.7,0.00,24.5,25.7,"03:52:56",1
"23/08/10","04:10",0.0,27.9,81.4,1000.3,128.8,1.2,3.3,87.7,0.00,24.5,25.8,"04:01:44",1
"23/08/10","04:20",0.0,28.0,81.2,1000.3,101.6,0.8,2.2,86.1,0.00,24.5,25.8,"04:17:36",1
"23/08/10","04:30",0.0,28.0,81.3,1000.3,118.4,0.8,1.9,129.1,0.00,24.5,25.7,"04:24:24",1
"23/08/10","04:40",0.0,28.0,81.4,1000.5,133.9,1.1,2.8,118.6,0.00,24.6,25.7,"04:33:12",1
"23/08/10","04:50",0.0,28.1,81.1,1000.5,135.8,1.3,4.2,138.1,0.00,24.6,25.7,"04:47:28",1
"23/08/10","05:00",0.0,28.2,80.5,1000.8,147.2,1.3,3.2,159.9,0.00,24.6,25.7,"04:59:04",1
"23/08/10","05:10",0.0,28.2,80.1,1000.5,127.8,1.2,3.9,94.4,0.00,24.5,25.6,"05:04:48",1
"23/08/10","05:20",0.0,28.3,79.7,1000.8,119.7,1.3,3.5,132.3,0.00,24.5,25.7,"05:18:16",1
"23/08/10","05:30",0.0,28.3,79.0,1000.5,136.9,1.5,3.7,142.2,0.00,24.3,25.7,"05:27:04",1
"23/08/10","05:40",0.0,28.3,78.4,1000.8,121.0,1.6,4.4,134.3,0.00,24.2,25.6,"05:35:52",1
"23/08/10","05:50",0.0,28.4,78.0,1000.5,122.6,1.2,3.6,108.0,0.00,24.2,25.7,"05:41:20",1
"23/08/10","06:00",0.0,28.5,77.3,1000.8,129.9,1.5,4.1,178.2,0.00,24.2,25.7,"05:55:52",1
"23/08/10","06:10",0.0,28.7,75.7,1000.8,136.1,1.7,4.8,152.2,0.01,24.0,25.6,"06:02:56",1
"23/08/10","06:20",0.0,29.3,72.9,1000.5,141.6,2.2,4.4,138.8,0.05,24.0,25.6,"06:12:16",1
"23/08/10","06:30",0.0,29.7,71.0,1000.5,137.3,2.0,4.3,169.8,0.07,23.9,25.6,"06:28:16",1
"23/08/10","06:40",0.0,29.5,70.5,1000.5,151.0,1.6,4.5,187.0,0.04,23.6,25.7,"06:34:56",1
"23/08/10","06:50",0.0,29.3,70.8,1000.5,134.3,1.8,4.8,128.6,0.04,23.5,25.7,"06:46:56",1
"23/08/10","07:00",0.0,29.3,70.5,1000.5,148.1,2.0,5.0,164.8,0.02,23.4,25.8,"06:56:16",1
"23/08/10","07:10",0.0,29.2,70.9,1000.5,150.7,1.6,4.4,148.8,0.03,23.4,25.5,"07:07:04",1
"23/08/10","07:20",0.0,29.7,70.1,1000.3,138.6,2.1,4.4,176.2,0.09,23.7,25.7,"07:12:48",1
"23/08/10","07:30",0.0,30.5,68.1,1000.5,141.3,2.6,5.6,164.4,0.17,24.0,25.6,"07:22:16",1
"23/08/10","07:40",0.0,31.0,66.0,1001.0,139.9,2.5,5.2,127.5,0.22,23.9,25.7,"07:38:00",1
"23/08/10","07:50",0.0,31.1,66.5,1001.2,139.5,2.5,4.7,141.7,0.21,24.2,25.8,"07:45:36",1
"23/08/10","08:00",0.0,31.8,65.0,1001.9,136.9,1.8,3.9,140.1,0.23,24.4,25.8,"07:58:32",1
"23/08/10","08:10",0.0,31.6,64.0,1002.2,138.3,2.3,4.4,127.3,0.25,24.0,25.8,"08:05:36",1
"23/08/10","08:20",0.0,31.7,63.4,1002.4,130.3,2.8,7.3,127.5,0.29,23.9,25.9,"08:12:08",1
"23/08/10","08:30",0.0,32.1,62.3,1002.2,141.1,2.6,4.9,99.6,0.31,24.0,25.7,"08:20:24",1
"23/08/10","08:40",0.0,32.1,61.5,1002.4,126.8,2.7,5.4,135.4,0.33,23.8,25.8,"08:32:56",1
"23/08/10","08:50",0.0,32.5,61.5,1002.6,138.3,2.5,5.7,133.4,0.36,24.2,26.0,"08:48:32",1
"23/08/10","09:00",0.0,32.4,60.4,1002.9,132.5,2.3,4.5,161.0,0.31,23.8,26.0,"08:55:04",1
"23/08/10","09:10",0.0,32.2,60.0,1002.4,143.6,3.5,7.5,118.0,0.38,23.5,25.9,"09:04:40",1
"23/08/10","09:20",0.0,32.9,59.1,1003.1,131.6,2.5,5.4,154.0,0.41,23.9,26.2,"09:10:08",1
"23/08/10","09:30",0.0,33.5,57.3,1003.1,121.5,2.2,4.7,84.6,0.45,23.9,26.2,"09:24:08",1
"23/08/10","09:40",0.0,33.6,55.8,1003.1,130.9,2.7,5.4,141.0,0.46,23.6,26.2,"09:35:28",1
"23/08/10","09:50",0.0,33.4,56.1,1003.1,146.7,3.0,6.7,146.5,0.44,23.5,26.1,"09:47:52",1
"23/08/10","10:00",0.0,33.6,56.0,1002.9,137.1,2.8,6.5,147.4,0.47,23.6,26.3,"09:58:08",1
"23/08/10","10:10",0.0,33.8,55.1,1002.9,138.8,2.7,7.5,146.4,0.46,23.6,26.2,"10:01:36",1
"23/08/10","10:20",0.0,32.4,58.5,1002.6,140.9,3.0,6.0,125.2,0.20,23.3,26.5,"10:14:24",1
"23/08/10","10:30",0.0,31.9,61.1,1002.4,123.5,3.1,5.8,147.0,0.27,23.5,26.3,"10:23:36",1
"23/08/10","10:40",0.0,32.4,62.1,1002.4,127.5,3.4,9.0,160.7,0.51,24.2,26.6,"10:30:08",1
"23/08/10","10:50",0.0,33.0,61.6,1002.6,137.7,3.0,6.5,147.9,0.57,24.7,26.6,"10:40:48",1
"23/08/10","11:00",0.0,32.5,61.9,1002.9,131.0,3.2,8.0,140.4,0.40,24.3,26.5,"10:52:40",1
"23/08/10","11:10",0.0,33.5,61.2,1002.9,144.8,3.0,5.1,153.3,0.56,25.0,26.6,"11:07:12",1
"23/08/10","11:20",0.0,33.8,60.3,1002.6,109.2,2.3,5.6,92.5,0.52,25.1,26.8,"11:18:48",1
"23/08/10","11:30",0.0,32.6,62.0,1002.4,137.3,2.3,7.3,64.3,0.27,24.4,26.9,"11:29:36",1
"23/08/10","11:40",0.0,33.6,58.7,1002.2,125.9,2.8,5.8,119.4,0.58,24.4,27.0,"11:34:48",1
"23/08/10","11:50",0.0,33.8,57.7,1002.4,139.5,3.0,7.3,131.6,0.55,24.3,27.1,"11:43:28",1
"23/08/10","12:00",0.0,33.8,56.6,1002.2,134.6,3.2,7.8,139.6,0.51,24.0,26.8,"11:55:44",1
"23/08/10","12:10",0.0,34.2,54.1,1002.9,152.6,2.7,7.5,121.0,0.47,23.6,27.1,"12:04:08",1
"23/08/10","12:20",0.0,33.9,54.0,1002.6,149.6,3.6,7.1,128.5,0.51,23.3,27.2,"12:16:56",1
"23/08/10","12:30",0.0,35.0,53.8,1002.2,143.3,2.7,5.5,183.9,0.56,24.3,27.5,"12:24:16",1
"23/08/10","12:40",0.0,34.9,53.1,1002.4,141.0,2.8,6.2,149.8,0.47,24.0,27.4,"12:30:48",1
"23/08/10","12:50",0.0,33.7,52.6,1002.2,151.6,3.2,7.2,134.1,0.29,22.7,27.5,"12:49:20",1
"23/08/10","13:00",0.0,33.3,55.6,1001.9,146.9,2.8,6.4,163.2,0.17,23.3,27.5,"12:53:28",1
"23/08/10","13:10",0.0,33.0,55.3,1001.5,132.7,2.5,6.2,150.6,0.15,22.9,27.4,"13:09:48",1
"23/08/10","13:20",0.0,32.7,57.2,1001.2,159.9,3.1,5.9,132.2,0.12,23.2,27.4,"13:14:08",1
"23/08/10","13:30",0.0,32.7,60.0,1000.8,126.4,2.7,6.5,112.0,0.18,24.0,27.6,"13:28:48",1
"23/08/10","13:40",0.0,32.2,60.7,1001.0,118.5,3.0,7.4,112.1,0.16,23.7,27.4,"13:33:28",1
"23/08/10","13:50",0.0,32.2,61.6,1001.0,122.4,2.7,6.4,104.3,0.21,23.9,27.5,"13:40:48",1
"23/08/10","14:00",0.0,33.4,59.5,1001.0,121.6,2.7,6.4,107.6,0.43,24.5,27.4,"13:55:36",1
"23/08/10","14:10",0.0,34.6,57.8,1001.5,112.3,2.1,5.8,114.0,0.48,25.1,27.5,"14:02:32",1
"23/08/10","14:20",0.0,33.6,60.7,1001.5,99.7,2.0,6.3,153.3,0.37,25.0,27.2,"14:10:16",1
"23/08/10","14:30",0.0,32.9,63.2,1001.2,96.1,2.0,4.3,148.0,0.28,25.0,27.6,"14:25:36",1
"23/08/10","14:40",0.0,31.7,65.7,1001.2,90.7,1.7,4.0,105.9,0.11,24.5,27.6,"14:37:12",1
"23/08/10","14:50",0.0,31.7,65.7,1000.5,133.4,2.2,4.3,148.8,0.15,24.5,27.4,"14:49:36",1
"23/08/10","15:00",0.0,33.2,61.2,1000.8,126.6,2.3,5.1,144.6,0.33,24.8,27.7,"14:58:40",1
"23/08/10","15:10",0.0,33.9,58.2,1000.8,121.9,2.6,7.7,153.9,0.37,24.6,27.6,"15:04:40",1
"23/08/10","15:20",0.0,34.8,56.9,1001.0,124.5,2.5,5.4,144.9,0.42,25.0,27.8,"15:14:40",1
"23/08/10","15:30",0.0,34.6,56.1,1001.2,130.0,2.6,6.5,164.6,0.36,24.6,27.7,"15:22:08",1
"23/08/10","15:40",0.0,33.5,60.0,1001.2,98.8,1.8,4.2,86.7,0.28,24.7,27.6,"15:38:24",1
"23/08/10","15:50",0.0,32.8,61.1,1000.8,108.2,2.0,4.9,87.6,0.20,24.4,27.7,"15:47:52",1
"23/08/10","16:00",0.0,32.9,59.8,1001.0,117.0,2.3,5.9,98.3,0.21,24.1,27.7,"15:59:04",1
"23/08/10","16:10",0.0,32.2,60.5,1001.0,131.6,2.5,4.9,127.0,0.10,23.6,27.7,"16:03:44",1
"23/08/10","16:20",0.0,31.7,62.1,1000.8,120.0,2.3,4.7,127.7,0.05,23.6,27.9,"16:18:00",1
"23/08/10","16:30",0.0,31.4,66.0,1000.0,117.8,1.8,3.7,75.7,0.05,24.3,27.7,"16:23:52",1
"23/08/10","16:40",0.0,30.8,68.0,1000.0,91.5,1.5,4.0,102.3,0.05,24.2,27.6,"16:35:44",1
"23/08/10","16:50",0.0,30.8,68.0,999.8,102.1,1.6,4.4,122.4,0.04,24.2,27.5,"16:48:24",1
"23/08/10","17:00",0.0,31.7,65.9,999.6,119.3,1.6,3.2,81.8,0.11,24.6,27.6,"16:52:56",1
"23/08/10","17:10",0.0,31.7,66.2,1000.0,106.9,1.5,3.9,94.7,0.09,24.7,27.5,"17:02:56",1
"23/08/10","17:20",0.0,31.7,66.2,1000.0,101.2,1.7,3.2,94.8,0.10,24.7,27.5,"17:17:52",1
"23/08/10","17:30",0.0,31.4,66.4,999.8,93.4,2.0,4.5,102.1,0.08,24.4,27.7,"17:26:08",1
"23/08/10","17:40",0.0,30.8,67.9,999.8,87.7,2.0,4.8,103.8,0.03,24.2,27.6,"17:39:52",1
"23/08/10","17:50",0.0,30.4,68.8,999.6,102.5,2.0,6.4,102.1,0.02,24.1,27.3,"17:49:04",1
"23/08/10","18:00",0.0,30.0,70.1,999.3,113.3,1.8,4.1,154.5,0.02,24.0,27.3,"17:56:16",1
"23/08/10","18:10",0.0,30.0,70.7,999.6,124.1,2.1,5.4,112.9,0.02,24.1,27.5,"18:03:44",1
"23/08/10","18:20",0.0,29.9,71.0,999.8,118.2,2.0,6.0,126.6,0.01,24.1,27.4,"18:15:52",1
"23/08/10","18:30",0.0,29.7,71.4,999.6,113.3,1.8,4.8,163.8,0.00,24.0,27.4,"18:21:04",1
"23/08/10","18:40",0.0,29.3,72.5,999.8,138.9,2.6,5.8,124.8,0.00,23.9,27.4,"18:34:56",1
"23/08/10","18:50",0.0,29.4,73.0,999.3,132.4,2.1,5.1,119.7,0.00,24.1,27.3,"18:40:16",1
"23/08/10","19:00",0.0,29.3,73.3,999.3,122.5,1.8,4.1,138.8,0.00,24.1,27.1,"18:53:12",1
"23/08/10","19:10",0.0,29.3,73.2,1000.0,124.7,1.7,4.7,179.5,0.00,24.0,27.1,"19:03:04",1
"23/08/10","19:20",0.0,29.0,74.7,999.8,99.5,1.2,3.2,75.9,0.00,24.1,27.1,"19:12:24",1
"23/08/10","19:30",0.0,28.8,75.9,1000.0,84.6,1.2,2.8,77.4,0.00,24.2,27.1,"19:28:00",1
"23/08/10","19:40",0.0,28.8,75.5,1000.0,100.1,1.5,2.5,156.2,0.00,24.1,27.2,"19:36:24",1
"23/08/10","19:50",0.0,28.8,75.0,1000.5,105.0,1.5,4.9,129.6,0.00,24.0,26.9,"19:47:20",1
"23/08/10","20:00",0.0,28.9,74.4,1000.8,116.4,1.5,3.1,62.0,0.00,23.9,27.0,"19:55:52",1
"23/08/10","20:10",0.0,28.9,74.4,1000.8,107.1,1.1,3.1,60.5,0.00,23.9,26.8,"20:08:24",1
"23/08/10","20:20",0.0,28.7,75.4,1000.8,113.3,1.5,3.1,104.3,0.00,24.0,26.9,"20:18:32",1
"23/08/10","20:30",0.0,28.7,75.1,1001.2,100.3,1.3,3.2,104.9,0.00,23.9,26.8,"20:29:12",1
"23/08/10","20:40",0.0,28.7,75.0,1001.0,120.8,1.6,3.9,116.2,0.00,23.9,27.0,"20:36:08",1
"23/08/10","20:50",0.0,28.7,75.0,1001.2,104.1,1.3,3.9,94.8,0.00,23.9,26.7,"20:40:16",1
"23/08/10","21:00",0.0,28.6,75.5,1001.5,109.3,1.2,3.9,129.8,0.00,23.9,26.8,"20:53:36",1
"23/08/10","21:10",0.0,28.5,75.8,1001.5,106.5,1.2,2.6,93.8,0.00,23.9,26.7,"21:06:00",1
"23/08/10","21:20",0.0,28.5,75.7,1001.5,110.5,1.5,3.9,106.8,0.00,23.8,26.6,"21:11:36",1
"23/08/10","21:30",0.0,28.5,75.6,1001.2,112.0,1.6,3.2,73.6,0.00,23.8,26.7,"21:29:20",1
"23/08/10","21:40",0.0,28.4,75.8,1001.5,126.2,1.5,3.2,114.1,0.00,23.8,26.6,"21:36:24",1
"23/08/10","21:50",0.0,28.4,76.1,1001.7,124.3,1.2,3.3,130.9,0.00,23.8,26.9,"21:40:56",1
"23/08/10","22:00",0.0,28.4,76.1,1001.7,135.1,1.0,3.3,127.5,0.00,23.8,26.6,"21:52:48",1
"23/08/10","22:10",0.0,28.4,76.3,1001.7,99.1,1.2,2.6,131.5,0.00,23.9,26.4,"22:02:16",1
"23/08/10","22:20",0.0,28.2,76.6,1001.5,111.2,0.8,2.4,100.5,0.00,23.7,26.7,"22:14:56",1
"23/08/10","22:30",0.0,28.3,76.6,1001.5,127.5,1.1,2.6,99.3,0.00,23.8,26.6,"22:25:28",1
"23/08/10","22:40",0.0,28.3,76.3,1001.7,113.6,1.1,2.7,179.8,0.00,23.8,26.6,"22:36:00",1
"23/08/10","22:50",0.0,28.3,76.2,1001.9,109.7,1.0,2.4,108.6,0.00,23.7,26.7,"22:44:08",1
"23/08/10","23:00",0.0,28.3,76.1,1001.5,88.8,1.0,2.4,78.4,0.00,23.7,26.6,"22:51:36",1
"23/08/10","23:10",0.0,28.2,76.0,1001.9,93.8,1.0,1.9,96.9,0.00,23.6,26.7,"23:03:20",1
"23/08/10","23:20",0.0,28.3,76.0,1001.7,98.5,0.7,1.9,70.2,0.00,23.7,26.4,"23:19:12",1
"23/08/10","23:30",0.0,28.2,76.2,1001.2,96.8,1.1,2.8,37.1,0.00,23.6,26.4,"23:29:28",1
"23/08/10","23:40",0.0,28.2,76.3,1001.2,70.2,1.0,3.1,19.0,0.00,23.7,26.4,"23:33:12",1
"23/08/10","23:50",0.0,28.2,76.6,1001.0,98.4,1.0,2.9,147.5,0.00,23.7,26.4,"23:43:44",1
"23/08/10","24:00",0.0,28.3,76.6,1001.2,93.2,1.1,3.1,116.3,0.00,23.8,26.6,"23:52:08",1
